Location: Heppenheim
(49.6410°N, 8.6370°E)
Time: 17:08:04
(UTC+02:00)

ISS - Pass Details

Date: 14 May 2026
Orbit: 414 x 424 km, 51.6° (Epoch: 10 May)

Event Time Altitude Azimuth Distance (km) Brightness Sun altitude
Rises 00:56:25 0° 288° (WNW) 2,356 0.4 -21.6°
Reaches altitude 10° 00:58:30 10° 287° (WNW) 1,493 -0.7 -21.6°
Enters shadow 01:00:21 30° 282° (WNW) 776 -2.3 -21.6°
